{"data":{"norad_id":69109,"intl_designator":"2026-108F","name":"QIANFAN-150","alt_names":[],"object_type":"PAYLOAD","status":"ACTIVE","operator":null,"country":"PRC","launch_date":"2026-05-17","launch_site_code":"WSC","launch_vehicle":null,"mission":null,"orbit_class":"UNKNOWN","rcs_meters":null,"size_class":null,"mass_kg":null,"dimensions":null,"purposes":[],"wikipedia_slug":null,"has_3d_model":false,"image_url":null,"decayed_at":null,"tle_current":{"epoch":"2026-09-20T04:05:14.208576Z","epoch_age_seconds":51683,"freshness":"FRESH","line1":"1 69109U 26108F   26263.17030334  .00000103  00000+0  14154-3 0  9993","line2":"2 69109  89.0194  12.5358 0002322 107.3846 252.7559 13.51024624 17270","mean_motion":13.51024624,"eccentricity":0.0002322,"inclination_deg":89.0194,"raan_deg":12.5358,"arg_perigee_deg":107.3846,"mean_anomaly_deg":252.7559,"bstar":0.00014154,"rev_number":1727,"period_min":106.58577011991,"perigee_km":1066.7619945023,"apogee_km":1070.2202085927,"semimajor_km":7446.6281015475,"source":"CELESTRAK","updated_at":"2026-09-20T09:00:24.680020Z"}}}